PY2FGD-15 Weather Reports


Display with metric or nautical units.
time (UTC)temp
F
wind
direction
speed
MPH
gust
MPH
rain 1hr
in
rain 24hr
in
rain mn
in
humidity
%
barometer
mb
20260509185003 72 317 15.0 16.0 0.10 0.30 0.20 77 1012.0
20260509184002 73 317 15.0 16.0 0.10 0.30 0.20 76 1012.0
20260509183004 73 317 15.0 16.0 0.10 0.30 0.20 76 1012.0
20260509182005 74 317 15.0 16.0 0.10 0.30 0.20 75 1013.0
20260509181002 75 317 15.0 16.0 0.10 0.30 0.20 72 1012.0
20260509180004 75 317 15.0 16.0 0.10 0.30 0.20 72 1012.0
20260509175005 78 317 15.0 17.0 0.10 0.30 0.20 67 1012.0
20260509174004 78 317 15.0 17.0 0.10 0.30 0.20 67 1012.0
20260509173004 79 317 16.0 18.0 0.10 0.30 0.20 67 1013.0
20260509172003 79 317 16.0 18.0 0.10 0.30 0.20 67 1013.0
20260509171003 79 317 16.0 18.0 0.10 0.30 0.20 53 1012.0
20260509170003 79 317 16.0 18.0 0.10 0.30 0.20 53 1012.0
20260509165005 79 317 16.0 18.0 0.10 0.30 0.20 53 1012.0
20260509164003 79 317 16.0 18.0 0.10 0.30 0.20 54 1012.0
20260509162003 79 336 15.0 17.0 0.10 0.30 0.20 51 1013.0
20260509161005 79 336 15.0 17.0 0.10 0.30 0.20 51 1013.0
20260509160005 80 336 16.0 18.0 0.10 0.30 0.20 51 1013.0
20260509155003 80 336 16.0 18.0 0.10 0.30 0.20 51 1013.0
20260509154003 79 336 16.0 18.0 0.10 0.30 0.20 54 1013.0
20260509153004 79 336 16.0 18.0 0.10 0.30 0.20 54 1013.0
20260509151003 76 341 14.0 15.0 0.10 0.30 0.20 59 1014.0
20260509150006 76 341 14.0 15.0 0.10 0.30 0.20 59 1014.0
20260509143005 74 341 12.0 14.0 0.10 0.30 0.20 64 1015.0
20260509142003 74 341 12.0 14.0 0.10 0.30 0.20 64 1015.0
20260509141005 75 341 13.0 15.0 0.10 0.30 0.20 64 1015.0
20260509140005 75 341 13.0 15.0 0.10 0.30 0.20 64 1015.0
20260509133004 71 353 11.0 12.0 0.10 0.30 0.20 78 1015.0
20260509131005 71 353 11.0 12.0 0.10 0.30 0.20 78 1015.0
20260509130004 72 353 11.0 12.0 0.10 0.30 0.20 78 1015.0
20260509125004 72 353 11.0 12.0 0.10 0.30 0.20 78 1015.0
20260509124003 73 353 11.0 12.0 0.10 0.30 0.20 75 1015.0
20260509123004 73 353 11.0 12.0 0.10 0.30 0.20 75 1015.0
20260509122003 73 353 11.0 12.0 0.10 0.30 0.20 75 1015.0
20260509120006 73 353 11.0 13.0 0.10 0.30 0.20 75 1015.0
20260509115003 73 353 12.0 13.0 0.10 0.30 0.20 75 1015.0
20260509113003 65 353 4.0 4.0 0.10 0.30 0.20 80 1015.0
20260509112003 66 353 4.0 4.0 0.10 0.30 0.20 80 1014.0
20260509111003 67 353 4.0 4.0 0.10 0.30 0.20 80 1014.0
20260509110005 67 353 4.0 4.0 0.10 0.30 0.20 80 1014.0
20260509105004 65 353 4.0 4.0 0.10 0.30 0.20 74 1014.0
20260509102004 66 353 4.0 4.0 0.10 0.30 0.20 74 1014.0
20260509101004 67 353 4.0 4.0 0.10 0.30 0.20 74 1014.0
20260509095003 68 353 4.0 4.0 0.10 0.30 0.20 74 1014.0
20260509094003 69 353 4.0 5.0 0.10 0.30 0.20 74 1014.0
20260509093003 69 353 4.0 5.0 0.10 0.30 0.20 74 1014.0
20260509092004 59 298 1.0 1.0 0.10 0.30 0.20 74 1013.0
20260509090004 60 298 1.0 1.0 0.10 0.30 0.20 74 1013.0
20260509084003 61 298 1.0 1.0 0.10 0.30 0.20 74 1013.0
20260509083004 62 298 1.0 1.0 0.10 0.30 0.20 74 1012.0
20260509081004 63 298 1.0 1.0 0.10 0.30 0.20 74 1012.0
20260509080003 63 298 1.0 1.0 0.10 0.30 0.20 74 1012.0
20260509075003 64 298 1.0 1.0 0.10 0.30 0.20 74 1012.0
20260509074008 64 298 1.0 1.0 0.10 0.30 0.20 74 1012.0
20260509073003 65 298 1.0 1.0 0.10 0.30 0.20 74 1012.0
20260509072003 65 298 1.0 1.0 0.10 0.30 0.20 74 1012.0
20260509071003 66 298 1.0 1.0 0.10 0.30 0.20 74 1012.0
20260509070003 67 298 1.0 1.0 0.10 0.30 0.20 74 1012.0
20260509064004 68 298 1.0 2.0 0.10 0.30 0.20 74 1012.0
20260509063003 68 298 1.0 2.0 0.10 0.30 0.20 74 1012.0
20260509062002 69 298 2.0 2.0 0.10 0.30 0.20 74 1012.0
20260509055004 60 306 11.0 12.0 0.10 0.30 0.20 74 1012.0
20260509054003 60 306 11.0 12.0 0.10 0.30 0.20 74 1012.0
20260509053003 61 306 11.0 12.0 0.10 0.30 0.20 74 1012.0
20260509052003 61 306 11.0 12.0 0.10 0.30 0.20 74 1012.0
20260509051002 62 306 11.0 12.0 0.10 0.30 0.20 74 1012.0
20260509050003 63 306 11.0 12.0 0.10 0.30 0.20 74 1012.0
20260509045003 63 306 11.0 12.0 0.10 0.30 0.20 74 1012.0
20260509044003 64 306 11.0 12.0 0.10 0.30 0.20 74 1012.0
20260509043004 65 306 11.0 12.0 0.10 0.30 0.20 74 1012.0
20260509042008 65 306 11.0 12.0 0.10 0.30 0.20 74 1012.0
20260509040003 66 306 11.0 12.0 0.10 0.30 0.20 74 1012.0
20260509035003 67 306 11.0 12.0 0.10 0.30 0.20 74 1012.0
20260509034004 68 306 11.0 12.0 0.10 0.30 0.20 74 1012.0
20260509033004 69 306 11.0 12.0 0.10 0.30 0.20 74 1012.0
20260509032002 70 306 11.0 12.0 0.10 0.30 0.20 74 1011.0
20260509031003 71 306 11.0 12.0 0.10 0.30 0.20 74 1012.0
20260509030006 71 306 11.0 12.0 0.10 0.30 0.20 74 1012.0
20260509025007 72 306 11.0 12.0 0.10 0.30 0.20 74 1012.0
20260509024003 73 306 11.0 12.0 0.10 0.30 0.20 74 1012.0
20260509022003 73 306 11.0 12.0 0.10 0.30 0.20 74 1012.0
20260509021003 73 306 11.0 12.0 0.10 0.30 0.20 74 1012.0
20260509020003 73 306 11.0 12.0 0.10 0.30 0.20 74 1012.0
20260509015003 72 306 11.0 12.0 0.10 0.30 0.20 74 1012.0
20260509014003 71 306 11.0 12.0 0.10 0.30 0.20 75 1012.0
20260509013008 71 306 11.0 12.0 0.10 0.30 0.20 75 1012.0
20260509011003 72 306 11.0 12.0 0.10 0.30 0.20 75 1011.0
20260509010004 72 306 11.0 12.0 0.10 0.30 0.20 75 1011.0
20260509005003 72 306 11.0 12.0 0.10 0.30 0.20 74 1011.0
20260509004003 72 306 11.0 12.0 0.10 0.30 0.20 73 1011.0
20260509003003 72 306 11.0 12.0 0.10 0.30 0.20 73 1011.0
20260509001008 72 306 11.0 12.0 0.10 0.30 0.20 72 1011.0
20260509000003 72 306 11.0 12.0 0.10 0.30 0.20 71 1011.0
20260508235003 72 306 11.0 12.0 0.10 0.30 0.20 71 1011.0
20260508234003 73 306 11.0 12.0 0.10 0.30 0.20 69 1011.0
20260508233003 73 306 11.0 12.0 0.10 0.30 0.20 69 1011.0
20260508232002 73 306 11.0 12.0 0.10 0.30 0.20 67 1010.0
20260508231010 73 306 11.0 12.0 0.10 0.30 0.20 67 1010.0
20260508230005 74 306 11.0 12.0 0.10 0.30 0.20 67 1010.0
20260508225003 74 306 11.0 12.0 0.10 0.30 0.20 67 1010.0
20260508223003 74 306 11.0 12.0 0.10 0.30 0.20 67 1010.0
20260508222004 74 306 11.0 12.0 0.10 0.30 0.20 66 1010.0
20260508221004 74 306 11.0 12.0 0.10 0.30 0.20 66 1010.0
20260508215003 75 306 11.0 12.0 0.10 0.30 0.20 65 1010.0
20260508214004 75 306 11.0 12.0 0.10 0.30 0.20 65 1010.0
20260508213004 75 306 11.0 12.0 0.10 0.30 0.20 64 1010.0
20260508212002 75 306 11.0 12.0 0.10 0.30 0.20 64 1010.0
20260508211003 75 306 11.0 12.0 0.10 0.30 0.20 64 1010.0
20260508210007 75 306 11.0 12.0 0.10 0.30 0.20 64 1010.0
20260508205003 75 306 11.0 12.0 0.10 0.30 0.20 64 1010.0
20260508204007 75 306 11.0 12.0 0.10 0.30 0.20 64 1010.0
20260508201004 75 306 11.0 12.0 0.10 0.30 0.20 64 1010.0
20260508200003 75 306 11.0 12.0 0.10 0.30 0.20 63 1010.0
20260508195004 75 306 11.0 12.0 0.10 0.30 0.20 63 1010.0
20260508194003 75 306 11.0 12.0 0.10 0.30 0.20 63 1010.0
20260508193005 75 306 11.0 12.0 0.10 0.30 0.20 62 1010.0
20260508192008 75 306 11.0 12.0 0.10 0.30 0.20 62 1010.0
20260508191004 75 306 11.0 12.0 0.10 0.30 0.20 62 1010.0
20260508190004 75 306 11.0 12.0 0.10 0.30 0.20 59 1010.0